Content
SEND FEEDBACK

Daily
Averages
Monthly
Summary
United States of America

AGANA, GUAM


Home > North America > United States > Guam
Elevation: 246 feet     Latitude: 13 29N     Longitude: 144 48E

WEATHER
 
SELECT A DAY
Number of Records: 209,165;   Date Range: 1/1/95 - 8/30/14
 
SHARE

PRINT THIS DATA

[ ← Previous Day ]
WEATHER ALMANAC - JANUARY 29, 2014
[ Next Day → ]
[ °C ]   °F
Weather ElementAverageHighLow
Temperature79.2 °F82.9 °F (11:54 am)75.2 °F (6:03 pm)
Dewpoint77 °F78.8 °F (9:26 am)75.2 °F (4:01 am)
Humidity92.9 %100 % (6:03 pm)85 % (11:54 am)
Barometer29.76 in29.84 in (10:16 pm)29.67 in (2:54 pm)
Wind Speed15.5 mph24.2 mph (11:54 am)
Wind Gust36.8 mph (4:01 am)
Weather ElementAverage
Visibility5.3 mi
Wind DirectionE (85.7 °)

Weather ElementTotal
Precipitation9.43 in
Cooling Degree Days14.1 (Base 65)
Growing Degree Days29.1 (Base 50)
Averaged from 70 records on January 29, 2014
WEATHER CONDITIONS BREAKOUT
WIND DIRECTION BREAKOUT
WEATHER BY HOUR - JANUARY 29, 2014
[ °C ]   °F
Local TimeTemperatureDewpointHumidityBarometerVisibilityWind DirectionWind SpeedGust SpeedPrecipitationEventsConditions
1:54 AM80.1 °F75.9 °F87 %29.72 in10.0 miENE (70°)17.3 mph0.00 inMostly Cloudy
2:54 AM80.1 °F77.0 °F90 %29.69 in10.0 miENE (60°)21.9 mph27.6 mphPartly Cloudy
3:54 AM80.1 °F77.0 °F90 %29.69 in10.0 miENE (60°)16.1 mphMostly Cloudy
4:01 AM78.8 °F75.2 °F89 %29.72 in3.0 miENE (60°)21.9 mph36.8 mph0.08 inRainRain
4:19 AM78.8 °F75.2 °F89 %29.72 in3.0 miENE (60°)16.1 mph24.2 mph0.14 inRainLight Rain
4:54 AM79.0 °F77.0 °F94 %29.69 in3.0 miENE (60°)13.8 mph0.14 inRainLight Rain
5:54 AM80.1 °F75.9 °F87 %29.70 in10.0 miENE (60°)15.0 mph0.00 inRainLight Rain
6:54 AM80.1 °F77.0 °F90 %29.73 in10.0 miENE (70°)19.6 mph25.3 mph0.00 inRainLight Rain
7:32 AM78.8 °F77.0 °F94 %29.77 in4.0 miENE (70°)13.8 mph0.16 inRainHeavy Rain
7:33 AM78.8 °F77.0 °F94 %29.76 in3.0 miEast (80°)11.5 mph0.17 inRainHeavy Rain
7:39 AM78.8 °F77.0 °F94 %29.77 in3.0 miENE (70°)10.4 mph0.24 inRainRain
7:50 AM78.8 °F77.0 °F94 %29.79 in1.8 miEast (80°)17.3 mph23.0 mph0.31 inRainHeavy Rain
7:54 AM78.1 °F75.9 °F93 %29.77 in1.0 miEast (80°)17.3 mph25.3 mph0.54 inRainHeavy Rain
8:12 AM77.0 °F75.2 °F94 %29.79 in6.0 miEast (80°)16.1 mph24.2 mph0.35 inRainRain
8:29 AM78.8 °F77.0 °F94 %29.80 in6.0 miEast (80°)16.1 mph23.0 mph0.39 inRainLight Rain
8:54 AM79.0 °F75.9 °F90 %29.78 in10.0 miENE (70°)15.0 mph0.40 inRainLight Rain
9:26 AM80.6 °F78.8 °F94 %29.80 in6.0 miENE (70°)16.1 mph23.0 mph0.01 inRainRain
9:39 AM80.6 °F78.8 °F94 %29.80 in3.0 miENE (70°)20.7 mph28.8 mph0.07 inRainRain
9:47 AM78.8 °F77.0 °F94 %29.81 in6.0 miEast (90°)19.6 mph34.5 mph0.08 inRainLight Rain
9:54 AM79.0 °F77.0 °F94 %29.78 in5.0 miEast (90°)17.3 mph27.6 mph0.09 inRainRain
10:54 AM79.0 °F77.0 °F94 %29.78 in3.0 miEast (80°)18.4 mph28.8 mph0.02 inRainRain
10:58 AM78.8 °F77.0 °F94 %29.79 in2.5 miEast (80°)23.0 mph29.9 mph0.02 inRainHeavy Rain
11:01 AM78.8 °F75.2 °F89 %29.79 in3.0 miEast (80°)20.7 mph29.9 mph0.02 inRainRain
11:54 AM82.9 °F78.1 °F85 %29.74 in10.0 miEast (80°)24.2 mph29.9 mph0.02 inPartly Cloudy
12:43 PM80.6 °F77.0 °F89 %29.76 in1.8 miEast (100°)19.6 mph31.1 mph0.00 inRainHeavy Rain
12:47 PM78.8 °F77.0 °F94 %29.76 in0.8 miEast (100°)21.9 mph31.1 mph0.08 inRainHeavy Rain
12:51 PM77.0 °F75.2 °F94 %29.75 in2.0 miEast (80°)18.4 mph29.9 mph0.20 inRainLight Rain
12:54 PM78.1 °F75.9 °F93 %29.73 in5.0 miEast (90°)13.8 mph29.9 mph0.22 inRainLight Rain
12:56 PM78.8 °F77.0 °F94 %29.74 in5.0 miEast (80°)15.0 mph25.3 mph0.00 inRainLight Rain
1:12 PM80.6 °F77.0 °F89 %29.74 in10.0 miEast (100°)18.4 mph25.3 mph0.00 inMostly Cloudy
1:40 PM80.6 °F78.8 °F94 %29.73 in10.0 miEast (90°)18.4 mph24.2 mph0.00 inMostly Cloudy
1:47 PM80.6 °F78.8 °F94 %29.72 in10.0 miEast (80°)18.4 mph27.6 mph0.00 inScattered Clouds
1:54 PM82.0 °F78.1 °F88 %29.70 in10.0 miEast (90°)24.2 mph32.2 mph0.00 inPartly Cloudy
2:34 PM82.4 °F78.8 °F89 %29.70 in6.0 miEast (90°)15.0 mph27.6 mph0.00 inRainLight Rain
2:49 PM80.6 °F78.8 °F94 %29.70 in2.0 miNorth0.00 inRainLight Rain
2:54 PM80.1 °F78.1 °F94 %29.67 in2.0 miESE (110°)12.7 mph29.9 mph0.08 inRainHeavy Rain
2:56 PM80.6 °F78.8 °F94 %29.69 in4.0 miEast (90°)12.7 mph27.6 mph0.00 inRainLight Rain
3:03 PM80.6 °F78.8 °F94 %29.70 in4.0 miEast (90°)15.0 mph21.9 mph0.00 inRainLight Rain
3:13 PM80.6 °F77.0 °F89 %29.71 in10.0 miEast (80°)17.3 mph33.4 mph0.01 inRainLight Rain
3:25 PM78.8 °F77.0 °F94 %29.71 in10.0 miEast (90°)18.4 mph26.5 mph0.01 inMostly Cloudy
3:33 PM78.8 °F77.0 °F94 %29.70 in10.0 miEast (100°)16.1 mph24.2 mph0.01 inMostly Cloudy
3:54 PM81.0 °F77.0 °F88 %29.68 in10.0 miEast (90°)12.7 mph23.0 mphClear
4:54 PM81.0 °F78.1 °F91 %29.71 in10.0 miEast (80°)17.3 mphMostly Cloudy
5:48 PM78.8 °F77.0 °F94 %29.76 in1.5 miEast (100°)21.9 mph32.2 mph0.02 inRainHeavy Rain
5:51 PM77.0 °F75.2 °F94 %29.76 in0.8 miEast (100°)17.3 mph32.2 mph0.10 inRainHeavy Rain
5:54 PM77.0 °F75.9 °F96 %29.74 in1.0 miEast (100°)18.4 mph32.2 mph0.22 inRainHeavy Rain
6:03 PM75.2 °F75.2 °F100 %29.76 in1.8 miEast (90°)20.7 mph29.9 mph0.17 inRainHeavy Rain
6:05 PM75.2 °F75.2 °F100 %29.76 in3.0 miEast (80°)18.4 mph27.6 mph0.18 inRainRain
6:28 PM78.8 °F75.2 °F89 %29.76 in10.0 miENE (70°)18.4 mph0.26 inMostly Cloudy
6:54 PM79.0 °F77.0 °F94 %29.75 in7.0 miEast (80°)16.1 mph0.26 inMostly Cloudy
7:18 PM78.8 °F77.0 °F94 %29.78 in2.0 miESE (120°)5.8 mph0.15 inRainHeavy Rain
7:25 PM78.8 °F77.0 °F94 %29.78 in2.0 miVariable5.8 mph0.25 inRainHeavy Rain
7:28 PM78.8 °F77.0 °F94 %29.78 in3.0 miSSW (210°)4.6 mph0.27 inRainHeavy Rain
7:39 PM78.8 °F77.0 °F94 %29.79 in10.0 miESE (120°)3.5 mph0.28 inRainLight Rain
7:46 PM78.8 °F77.0 °F94 %29.79 in10.0 miEast (90°)3.5 mph0.28 inOvercast
7:54 PM80.1 °F78.1 °F94 %29.77 in8.0 miEast (80°)10.4 mph0.28 inRainLight Rain
8:27 PM80.6 °F78.8 °F94 %29.80 in7.0 miEast (90°)11.5 mph17.3 mph0.06 inRainLight Rain
8:54 PM80.1 °F78.1 °F94 %29.81 in4.0 miEast (100°)13.8 mph21.9 mph0.06 inRainRain
9:01 PM78.8 °F75.2 °F89 %29.82 in1.8 miEast (80°)17.3 mph21.9 mph0.08 inRainHeavy Rain
9:09 PM78.8 °F75.2 °F89 %29.83 in3.0 miEast (80°)16.1 mph29.9 mph0.16 inRainLight Rain
9:16 PM78.8 °F75.2 °F89 %29.83 in4.0 miEast (90°)15.0 mph23.0 mph0.17 inRainRain
9:25 PM78.8 °F77.0 °F94 %29.83 in2.5 miESE (110°)11.5 mph24.2 mph0.29 inRainHeavy Rain
9:33 PM78.8 °F77.0 °F94 %29.82 in8.0 miESE (110°)6.9 mph0.29 inRainLight Rain
9:54 PM79.0 °F78.1 °F97 %29.82 in4.0 miESE (110°)11.5 mph0.35 inRainHeavy Rain
9:56 PM78.8 °F78.8 °F100 %29.83 in4.0 miEast (100°)9.2 mph0.02 inRainHeavy Rain
10:16 PM78.8 °F78.8 °F100 %29.84 in1.8 miEast (100°)19.6 mph33.4 mph0.13 inRainHeavy Rain
10:31 PM78.8 °F77.0 °F94 %29.83 in3.0 miEast (100°)8.1 mph25.3 mph0.41 inRainHeavy Rain
10:54 PM79.0 °F77.0 °F94 %29.81 in6.0 miEast (90°)17.3 mph28.8 mph0.54 inRainHeavy Rain
11:17 PM77.0 °F75.2 °F94 %29.83 in3.0 miESE (120°)12.7 mph25.3 mph0.09 inRainHeavy Rain
11:54 PM78.1 °F77.0 °F96 %29.81 in7.0 miEast (100°)10.4 mph0.20 inRainRain
Hourly data recorded from PGUM, located miles away from Agana, Guam







STORIES FROM OUR PARTNERS